Tracking 25949 objects as of 8-Aug-2022
HD Live streaming from Space Station
objects crossing your sky now

STARLINK-1554

Track STARLINK-1554 now!
10-day predictions
STARLINK-1554 is classified as:


NORAD ID: 46055
Int'l Code: 2020-055AE
Perigee: 553.4 km
Apogee: 555.3 km
Inclination: 53.1 °
Period: 95.6 minutes
Semi major axis: 6925 km
RCS: Unknown
Launch date: August 7, 2020
Source: United States (US)
Launch site: AIR FORCE EASTERN TEST RANGE (AFETR)
aabbcc
Your satellite tracking list
Your tracking list is empty




NASA's NSSDC Master Catalog

Two Line Element Set (TLE):
1 46055U 20055AE  22220.06031266  .00001064  00000-0  90334-4 0  9998
2 46055  53.0524 235.7730 0001391  67.0196 293.0940 15.06399665111090
Source of the keplerian elements: AFSPC